Location: Unspecified
(0.0000°N, 0.0000°E)
Time: 22:10:48
(UTC+01:00)

JASON 3 - Pass Details

Date: 08 October 2020
Orbit: 1332 x 1343 km, 66.0° (Epoch: 27 October)

Event Time Altitude Azimuth Distance (km) Brightness Sun altitude
Rises 21:54:05 0° 327° (NNW) 4,344 ? -31.5°
Reaches altitude 10° 21:57:02 10° 321° (NW) 3,372 ? -32.2°
Maximum altitude 22:04:46 47° 250° (WSW) 1,710 ? -34.1°
Drops below altitude 10° 22:12:32 10° 178° (S) 3,373 ? -36.0°
Sets 22:15:31 0° 172° (S) 4,346 ? -36.8°
